COSMOS 2251 DEB

Satellite information

Favourite Embed

Satellite Type and Status

DEBRISIN ORBIT

Key statistics

Satellite COSMOS 2251 DEB at a glance.

Uptime

11869

Days in orbit

Revolutions

≈ 14.4

Per day

Orbit

LEO

Low Earth Orbit

Inclination

74.0

Latest

Satellite identification and parameters

Extended collection of information and parameters for COSMOS 2251 DEB.

Object identification

Identified? True

Debris? True

Object name: COSMOS 2251 DEB

International designator: 1993-036AYM

Object number (NORAD): 36074

Object ID (CCSDS): 36074

Country: COMMONWEALTH OF INDEPENDENT STATES (CIS)

Current information (Y/N): Y

RCS size: SMALL

Orbital parameters

Period: 99.747 minutes

Inclination: 73.9929 deg

SMA: 7124.596 km

Apoapsis: 775.899 km

Periapsis: 717.024 km

RAAN: 356.1864 deg

Eccentricy: 0.0041318

Argument of periapsis: 90.6412 deg

Mean anomaly: 269.9479 deg

Mean motion: 14.43651509 rev/day

Mean motion (dot): 0.00006071 rev/day2

B* drag term: 0.0017767 1/REarth

Two-line elements (TLE)

Creation date: Dec. 4, 2025, 9:06 p.m.

Reference frame: TEME

Reference center: EARTH

Epoch: Dec. 4, 2025, 7:35 a.m. UTC

TLE line 0: 0 COSMOS 2251 DEB

TLE line 1: 1 36074U 93036AYM 25338.31660162 .00006071 00000-0 17767-2 0 9991

TLE line 2: 2 36074 73.9929 356.1864 0041318 90.6412 269.9479 14.43651509857883

Live tracking on map

Real-time ground track for satellite COSMOS 2251 DEB.

In-orbit conjunctions

A list of the most updated potential collisions computed for object COSMOS 2251 DEB.

Target Orbit TCA Probability of collision Miss distance Type
CZ-6A DEB LEO 2025-02-19 17:27:01 0.0001397791 898.0 (m) DEBRIS
COSMOS 2251 DEB LEO 2025-01-05 09:00:06 0.0001100437 200.0 (m) DEBRIS
THOR BURNER 2 R/B SSO 2024-10-13 16:19:58 0.0001760723 131.0 (m) ROCKET BODY

Associated space launch

Military communications satellite. Destroyed in a collision with Iridium 33.

COSMOS 2251 DEB was lifted into orbit during the mission ‘Kosmos-3M | Strela-2M 51’, on board a Kosmos-3M space rocket.

The launch took place on June 16, 1993, 4:17 a.m. from 132/1 (132L).

For more information about the launch, click the button.

Launch to space Kosmos-3M | Strela-2M 51
Kosmos-3M | Strela-2M 51

Agency: N/A

Status: Launch Successful

Launch date: June 16, 1993, 4:17 a.m. UTC

Rocket: Kosmos-3M

Launch pad: 132/1 (132L)

Location: Plesetsk Cosmodrome, Russian Federation

...

Latest news about this satellite

There are no fresh news available about this satellite. Check back as we update our databases every day.


Newsletter sign-up

Weekly statistics, charts and insights to help you stay on top of the space industry.